sat.trackr.live / text

‹ back to catalog

STARLINK-31025

NORAD 58634 · 2023-203S

PAYLOAD ACTIVE UNKNOWN

§ Identity

Operator
Country
US
Launch date
2023-12-23
Launch site
AFETR
Launch vehicle
Mass (kg)
RCS (m²)

Purposes: comms

External: N2YO · Heavens-Above · Gunter

§ Orbital elements

Epoch: 2026-09-19T17:56:35.366784Z

Period
94.27 min
Inclination
43.0039°
Eccentricity
0.0001284
Mean motion
15.27562148 rev/d
Perigee alt
482.2 km
Apogee alt
484.0 km
Semi-major
6,861.2 km
B*
-5.3902e-5
RAAN
50.7693°
Arg perigee
269.8598°
Mean anomaly
90.2107°
Rev number
15,447

§ Raw data

STARLINK-310251 58634U 23203S   26262.74763156 -.00001744  00000+0 -53902-4 0  99932 58634  43.0039  50.7693 0001284 269.8598  90.2107 15.27562148154470

JSON: /api/v1/satellites/58634 · /tle

For live sub-satellite position, see the globe view (requires WebGL).

§ Visibility from observer

Set your observer location to see the next 7 days of passes ≥ 10°. The values pass through the URL so the page stays shareable.

No JS? Fill the form by hand. The geolocation button needs JavaScript.